This demonstration page uses our WeatherBlox Daily Observations layout. Learn more.

38.89511, -77.03637

Hourly Observations for September 17, 2016

Temp ( °F °C ) Dew Point ( °F °C ) Humidity (%) Winds ( mph kmh ) Pressure ( in mb ) Visibility ( mi km ) Precip ( " mm )
12:52 am 00:52 Cloudy 70 21.1 62 16.7 76 76 SE 8 13 30.24 1024 10 16.0934 0 0
1:52 am 01:52 Cloudy 70 21.1 62 16.7 76 76 SSE 6 9 30.24 1024 10 16.0934 0 0
2:52 am 02:52 Cloudy 69 20.6 61 16.1 76 76 S 8 13 30.24 1024 10 16.0934 0 0
3:52 am 03:52 Cloudy 69 20.6 62 16.7 78 78 SSE 7 11 30.22 1023 10 16.0934 0 0
4:52 am 04:52 Cloudy 69 20.6 62 16.7 78 78 SSE 10 17 30.22 1023 10 16.0934 0 0
5:52 am 05:52 Cloudy 69 20.6 62 16.7 78 78 SE 8 13 30.22 1023 10 16.0934 0 0
6:27 am 06:27 Cloudy 69 20.6 63 17.2 81 81 S 3 6 30.24 1024 10 16.0934 0 0
6:52 am 06:52 Cloudy 69 20.6 63 17.2 81 81 S 3 6 30.23 1024 10 16.0934 0 0
7:52 am 07:52 Cloudy 69 20.6 63 17.2 81 81 SE 7 11 30.23 1024 10 16.0934 0 0
8:12 am 08:12 Cloudy 70 21 63 17 78 78 SSE 6 9 30.24 1024 10 16.0934 0 0
8:30 am 08:30 Cloudy 70 21 64 18 83 83 S 5 7 30.24 1024 10 16.0934 0 0
8:52 am 08:52 Cloudy 70 21.1 64 17.8 82 82 S 6 9 30.23 1024 10 16.0934 0 0
9:16 am 09:16 Cloudy 72 22 64 18 78 78 S 6 9 30.24 1024 10 16.0934 0 0
9:52 am 09:52 Cloudy 72 22.2 64 17.8 76 76 S 8 13 30.23 1024 10 16.0934 0 0
10:52 am 10:52 Cloudy 74 23.3 65 18.3 74 74 S 8 13 30.22 1024 10 16.0934 0 0
11:52 am 11:52 Mostly Cloudy 78 25.6 64 17.8 62 62 SSE 9 15 30.21 1023 10 16.0934 0 0
12:52 pm 12:52 Cloudy 79 26.1 66 18.9 65 65 S 10 17 30.19 1022 10 16.0934 0 0
1:52 pm 13:52 Cloudy 82 27.8 65 18.3 56 56 S 12 19 30.16 1021 10 16.0934 0 0
2:52 pm 14:52 Cloudy 82 27.8 66 18.9 58 58 S 9 15 30.14 1021 10 16.0934 0 0
3:52 pm 15:52 Cloudy 81 27.2 66 18.9 61 61 S 9 15 30.12 1020 10 16.0934 0 0
4:52 pm 16:52 Cloudy 82 27.8 66 18.9 58 58 S 7 11 30.11 1020 10 16.0934 0 0
5:27 pm 17:27 Mostly Cloudy 82 27.8 67 19.4 60 60 S 9 15 30.12 1020 10 16.0934 0 0
5:52 pm 17:52 Mostly Cloudy 83 28.3 66 18.9 57 57 S 9 15 30.1 1019 10 16.0934 0 0
6:52 pm 18:52 Mostly Cloudy 80 26.7 67 19.4 64 64 S 8 13 30.1 1019 10 16.0934 0 0
7:52 pm 19:52 Mostly Cloudy 78 25.6 66 18.9 67 67 SSE 8 13 30.11 1020 10 16.0934 0 0
8:52 pm 20:52 Mostly Cloudy 76 24.4 66 18.9 72 72 S 8 13 30.11 1020 10 16.0934 0 0
9:52 pm 21:52 Mostly Cloudy 76 24.4 68 20 77 77 S 10 17 30.11 1020 10 16.0934 0 0
10:52 pm 22:52 Mostly Cloudy 75 23.9 68 20 79 79 S 10 17 30.1 1019 10 16.0934 0 0
11:52 pm 23:52 Mostly Cloudy 74 23.3 69 20.6 85 85 S 9 15 30.09 1019 10 16.0934 0 0

Powered by AerisWeather